Terminal Aerodrome Forecast
Issued by NWS

Home | Current Version | Previous Version | Text Only | Print | Product List | Glossary On
Versions: 1 2 3 4 5 6 7 8 9 10 11 12 13 14 15
000
FTUS43 KMQT 251733
TAFSAW
TAF
KSAW 251733Z 2518/2618 03008KT P6SM SCT025 BKN035
     FM252000 03007KT P6SM VCSH BKN040
     FM252200 02006KT P6SM VCSH BKN045
     FM260000 01003KT 5SM -SHRA BR OVC030
     FM260500 35005KT 4SM -SHRA OVC004
     FM261300 35011KT P6SM -SHRA OVC008
     FM261500 35011G18KT P6SM BKN015=

USA.gov is the U.S. government's official web portal to all federal, state and local government web resources and services.